Flag for Australia Weather past 2 weeks in Rockhampton, Queensland, Australia

Now
77 °F

Passing clouds.


Feels Like: 78 °F
Forecast: 76 / 89 °F
Wind: 6 mph from Southeast

Location: Rockhampton Airport

Current Time: Mar 7, 2015 at 6:25:33 AM

Latest Report: Mar 7, 2015 at 6:00 AM


Visibility: N/A

Pressure: 29.74 "Hg

Humidity: 89%

Dew point: 73 °F

Location of RockhamptonLocation

Historic Weather in Rockhampton — Graph

°F

Rockhampton temperature yesterday

Maximum temperature yesterday: 91 °F (at 12:30 PM)
Minimum temperature yesterday: 75 °F (at 6:00 AM)
Average temperature yesterday: 83 °F

Past Weeks' High & Low Weather Summary

 TemperatureHumidityPressure
High99 °F (Feb 22, 3:00 PM)100% (Feb 20, 12:00 PM)29.95 "Hg (Feb 20, 12:00 PM)
Low72 °F (Feb 28, 6:00 AM)31% (Mar 6, 9:30 AM)28.91 "Hg (Feb 20, 1:00 PM)
Average82 °F72%29.76 "Hg
* Reported Feb 20 5:00 AM — Mar 7 5:00 AM, Rockhampton, Weather by CustomWeather, © 2015

Note: Actual official high and low records may vary slightly from our data, if they occured in-between our weather recording intervals... More about our weather records

Advertising

Rockhampton weather history for previous 24 hours

 ConditionsComfort  
Time TempWeatherWind HumidityBarometerVisibility
5:00 AM
Sat, Mar 7
79 °FSunny.5 mph84%29.71 "HgN/A
4:00 AM77 °FClear.2 mph94%29.71 "HgN/A
3:30 AM79 °FClear.5 mph89%29.71 "HgN/A
3:00 AM79 °FClear.3 mph89%29.71 "HgN/A
2:30 AM81 °FClear.3 mph84%29.71 "HgN/A
2:00 AM79 °FClear.3 mph94%29.71 "HgN/A
1:30 AM79 °FClear.5 mph94%29.71 "HgN/A
1:00 AM79 °FClear.No wind89%29.74 "HgN/A
12:30 AM79 °FClear.3 mph89%29.74 "HgN/A
12:00 AM79 °FClear.3 mph89%29.74 "HgN/A
11:30 PM
Fri, Mar 6
81 °FClear.5 mph84%29.74 "HgN/A
11:00 PM81 °FClear.6 mph84%29.74 "HgN/A
10:00 PM81 °FClear.6 mph84%29.74 "Hg10 mi
9:30 PM81 °FClear.5 mph84%29.74 "Hg10 mi
9:00 PM81 °FClear.6 mph84%29.71 "Hg10 mi
8:30 PM82 °FClear.3 mph79%29.71 "Hg10 mi
8:00 PM82 °FClear.2 mph74%29.71 "Hg10 mi
7:00 PM82 °FClear.5 mph74%29.68 "Hg10 mi
6:30 PM84 °FPassing clouds.5 mph66%29.65 "HgN/A
6:00 PM86 °FPassing clouds.6 mph62%29.65 "HgN/A
5:00 PM90 °FPassing clouds.7 mph55%29.65 "HgN/A
4:30 PM90 °FPassing clouds.9 mph55%29.65 "HgN/A
4:00 PM90 °FPassing clouds.7 mph55%29.65 "HgN/A
3:30 PM90 °FPassing clouds.9 mph55%29.65 "HgN/A
3:00 PM90 °FPassing clouds.8 mph55%29.65 "HgN/A
2:30 PM91 °FPassing clouds.7 mph52%29.65 "HgN/A
2:00 PM91 °FSunny.10 mph49%29.68 "HgN/A
1:00 PM90 °FPassing clouds.10 mph55%29.68 "HgN/A
12:30 PM91 °FPassing clouds.7 mph56%29.71 "HgN/A
12:00 PM88 °FPassing clouds.10 mph55%29.71 "HgN/A
11:30 AM90 °FPassing clouds.12 mph52%29.71 "HgN/A
11:00 AM90 °FPassing clouds.9 mph52%29.74 "HgN/A
10:30 AM88 °FSunny.10 mph49%29.74 "Hg10 mi
10:00 AM88 °FSunny.13 mph35%29.74 "Hg10 mi
9:30 AM88 °FSunny.14 mph31%29.74 "Hg10 mi
9:00 AM88 °FSunny.13 mph38%29.74 "Hg10 mi
8:30 AM84 °FSunny.5 mph66%29.74 "Hg10 mi
8:00 AM81 °FSunny.5 mph74%29.74 "Hg10 mi
7:30 AM79 °FSunny.2 mph84%29.74 "Hg10 mi
6:30 AM75 °FSunny.No wind94%29.71 "Hg10 mi
6:00 AM75 °FFog.No wind94%29.71 "HgN/A
Weather by CustomWeather, © 2015

See weather overviewHow to use our weather pages